Dewpoint
69 69 69 62 56 53 52 52 53 52 53 56 54 54 54 56 55 56 63 64 65 66 70 73 77 76 75 75 75 75 75 75 75 75 74 74 74 74 73 73 72 74 74 73 73 73 73 73 72
67 69 67 58 54 49 51 54 54 55 56 56 55 55 55 57 61 64 63 65 65 65 68 70 73 72 75 75 75 75 75 75 75 75 74 74 73 73 73 73 73 74 73 74 74 73 73 73 73
66 68 60 55 54 50 53 55 55 57 58 55 55 56 56 58 63 63 64 64 64 66 67 71 72 72 75 75 75 75 75 75 75 74 74 73 73 73 73 73 74 73 74 74 73 73 73 73 72
65 64 60 54 51 55 54 56 56 57 57 57 57 55 60 63 63 64 65 64 64 64 66 72 74 73 75 75 75 75 74 74 74 74 74 74 73 73 73 74 73 73 73 73 72 72 72 72 72
64 60 56 53 53 54 56 57 57 55 56 57 56 55 59 63 65 65 65 63 63 65 66 71 74 74 75 75 75 74 75 74 74 74 74 74 74 74 74 73 73 73 72 72 71 72 72 71 72
57 56 52 49 53 55 56 58 57 56 57 57 56 55 60 65 65 65 64 64 62 65 66 71 74 73 74 74 74 73 73 72 74 72 73 74 74 74 73 73 72 71 70 71 71 71 72 71 71
52 52 50 50 53 54 55 58 56 56 56 56 56 55 61 64 65 65 64 64 63 65 67 71 71 73 73 73 74 73 72 73 73 71 73 74 74 74 73 72 71 70 70 71 72 72 72 72 71
57 53 49 52 53 54 56 56 57 55 57 60 59 56 59 64 65 64 65 64 66 68 67 67 68 70 75 74 74 73 74 72 73 72 73 73 74 73 73 73 72 71 71 70 71 72 73 73 72
56 49 47 50 50 54 56 54 57 57 57 59 59 58 60 65 65 64 64 65 68 68 68 69 73 74 74 74 74 73 73 72 73 73 72 73 70 70 70 71 71 71 71 73 71 71 73 73 72
51 48 49 50 51 52 56 55 56 57 57 57 59 60 62 64 64 63 63 64 66 67 68 71 71 71 70 69 74 75 74 73 75 69 71 76 73 70 69 69 70 71 72 71 72 72 73 72 66
48 47 49 50 52 54 55 56 57 55 54 55 55 60 63 63 63 63 63 64 65 66 67 69 68 70 68 68 71 67 69 68 73 72 72 73 69 67 66 67 68 71 73 68 70 71 70 67 66
45 44 49 51 54 55 55 57 56 56 56 57 57 60 62 62 61 61 61 62 63 65 65 67 68 71 70 69 69 72 69 68 68 67 73 76 68 67 68 67 69 71 70 70 70 68 70 71 71
35 35 44 49 52 55 56 56 57 57 58 58 59 60 61 61 61 61 60 61 62 62 63 66 68 72 71 72 71 69 70 68 68 70 72 73 65 67 68 69 68 70 70 68 69 71 69 70 68
31 36 42 47 48 52 54 54 58 56 58 58 59 59 59 60 60 62 59 59 60 62 64 66 68 71 71 71 73 70 69 73 73 70 70 74 67 70 68 69 68 68 71 68 70 71 69 69 67
31 37 42 42 44 46 53 51 56 56 58 57 57 58 58 59 60 62 62 62 62 63 65 66 68 68 71 71 72 70 69 70 69 68 73 73 72 72 71 69 70 67 72 72 70 71 70 67 67
34 37 34 35 40 45 48 38 46 57 58 57 56 57 58 59 59 62 62 62 63 66 67 67 66 67 70 72 72 68 69 69 68 70 69 72 72 73 75 69 69 70 71 70 67 68 68 67 66
33 31 32 31 32 38 45 42 46 54 56 56 56 56 57 58 60 62 61 62 63 66 69 68 70 69 71 73 70 69 70 69 71 67 68 71 71 74 74 70 70 73 70 69 67 69 69 66 66
31 30 29 29 30 31 32 33 31 40 53 53 56 57 57 57 58 60 61 62 63 66 68 70 70 72 73 76 71 68 68 69 68 70 68 70 71 73 76 71 73 72 70 68 69 72 69 67 66
25 28 29 27 28 32 29 31 31 34 48 51 54 56 56 57 58 59 61 62 63 65 67 70 70 73 73 72 69 68 66 67 68 66 69 71 72 73 76 70 73 72 71 72 71 69 68 65 67
24 28 27 27 28 29 30 31 33 32 39 47 51 54 56 57 57 59 60 61 62 65 68 70 71 73 73 70 69 68 67 66 67 69 69 71 72 73 73 73 72 73 70 73 72 70 64 64 66
25 27 26 26 28 25 31 26 31 33 42 46 51 51 54 55 57 59 60 61 62 65 68 70 72 73 73 72 71 71 71 71 68 66 67 68 71 72 73 74 73 75 72 69 71 70 69 64 68
24 25 25 28 26 22 23 21 32 31 33 35 38 46 51 54 57 59 60 61 61 63 66 69 72 73 73 73 71 73 68 66 64 66 66 66 70 71 72 73 74 76 71 72 71 70 71 71 66
23 26 27 28 26 22 20 19 32 31 28 32 37 35 44 52 55 58 59 61 61 63 65 69 72 73 73 74 73 70 74 75 75 67 70 72 70 71 71 72 73 73 76 73 73 72 73 71 68
27 26 26 28 24 21 18 17 25 26 32 35 40 39 45 50 53 58 59 61 62 63 67 69 71 74 74 73 73 73 73 72 68 72 68 70 66 67 71 71 73 73 73 73 73 74 75 73 72
27 22 24 24 20 19 21 19 22 27 32 38 42 40 44 53 53 56 59 59 61 63 67 67 71 72 73 73 73 73 73 74 72 70 68 68 66 65 67 71 72 71 74 74 74 75 73 73 71
26 24 23 23 22 21 26 22 24 25 33 39 42 46 47 51 52 54 58 60 62 63 66 66 69 71 72 72 73 73 73 70 69 70 67 66 65 65 69 70 71 72 71 73 73 71 71 71 70
27 26 22 21 21 21 21 24 25 27 30 33 36 42 46 52 52 55 58 60 61 63 66 67 69 71 71 71 72 73 73 72 69 70 70 67 69 65 69 70 71 71 72 71 72 70 70 70 69
28 27 22 22 26 26 23 25 26 28 31 33 35 39 42 49 52 54 56 58 61 62 64 66 68 70 70 70 71 71 72 73 71 71 71 70 69 70 70 72 71 71 72 72 73 69 71 72 69
27 27 26 23 24 23 23 24 30 29 36 38 39 42 44 49 53 51 57 58 61 62 63 64 67 68 69 69 70 71 70 71 71 70 71 71 70 70 70 71 72 70 69 71 73 75 73 72 73
31 30 28 26 30 29 28 26 30 30 37 41 44 48 51 55 57 53 54 59 61 63 64 65 65 66 68 69 71 70 70 70 69 70 70 71 71 71 71 70 71 71 71 71 73 72 70 71 72
Lifted_Index
-2 -3 -2 -2 -2 -2 -2 -2 -2 -2 -2 -1 -1 -1 -1 -2 -2 -2 -3 -3 -3 -3 -4 -4 -4 -5 -5 -5 -5 -5 -5 -5 -5 -4 -4 -4 -4 -4 -4 -4 -5 -5 -5 -5 -6 -6 -5 -5 -5
-2 -3 -2 -2 -2 -2 -2 -2 -2 -2 -2 -1 -1 -1 -1 -2 -2 -2 -3 -2 -3 -3 -3 -3 -3 -4 -5 -5 -5 -5 -5 -5 -5 -4 -4 -4 -4 -4 -4 -4 -5 -5 -5 -6 -6 -5 -5 -5 -5
-2 -3 -2 -1 -1 -1 -1 -2 -2 -2 -2 -2 -1 -1 -1 -2 -2 -2 -2 -2 -2 -2 -2 -2 -2 -3 -4 -5 -5 -4 -5 -5 -5 -4 -4 -4 -4 -4 -4 -4 -5 -5 -5 -5 -5 -5 -5 -5 -5
-3 -2 -2 -1 -1 -1 -1 -1 -1 -2 -2 -2 -1 -1 -1 -2 -2 -2 -2 -2 -2 -2 -2 -2 -3 -3 -4 -5 -4 -4 -4 -4 -4 -4 -4 -4 -4 -4 -4 -5 -5 -5 -5 -5 -5 -5 -5 -5 -5
-2 -2 -2 -1 -1 -1 -1 -1 -1 -1 -2 -2 -1 -1 -1 -2 -2 -2 -2 -2 -2 -2 -2 -3 -3 -3 -4 -4 -4 -3 -3 -3 -4 -4 -4 -4 -4 -5 -5 -5 -5 -5 -4 -4 -5 -5 -5 -5 -5
-2 -1 -1 -1 -1 -1 -1 -1 -1 -1 -2 -1 -1 -1 -2 -2 -2 -2 -2 -2 -2 -2 -2 -3 -3 -3 -3 -3 -3 -2 -2 -3 -3 -3 -4 -4 -5 -5 -5 -5 -4 -4 -4 -4 -5 -5 -5 -5 -5
-1 -1 -1 -1 -1 -1 -1 -1 -1 -1 -2 -2 -1 -1 -2 -2 -2 -2 -2 -2 -2 -2 -2 -3 -3 -3 -3 -3 -3 -2 -2 -2 -2 -3 -4 -4 -4 -5 -5 -4 -4 -4 -4 -4 -5 -5 -5 -5 -5
-1 -1 -1 -1 -1 -1 -1 -1 -1 -1 -2 -2 -2 -2 -2 -2 -2 -2 -2 -2 -2 -3 -3 -3 -3 -3 -3 -3 -3 -2 -2 -2 -2 -3 -4 -4 -4 -4 -4 -4 -4 -4 -4 -4 -4 -5 -5 -5 -5
-1 -1 -1 -1 -1 -1 -1 -1 -1 -1 -2 -2 -2 -2 -2 -2 -2 -2 -2 -2 -3 -3 -3 -3 -3 -4 -3 -3 -3 -3 -2 -2 -3 -3 -3 -4 -4 -4 -4 -4 -4 -4 -4 -4 -4 -5 -5 -5 -5
-1 -1 -1 -1 -1 -1 -1 -1 -1 -2 -3 -3 -2 -2 -2 -2 -2 -2 -2 -2 -3 -3 -3 -3 -4 -3 -3 -3 -3 -3 -2 -2 -3 -3 -3 -4 -4 -3 -3 -3 -4 -5 -5 -4 -5 -5 -5 -4 -4
-0 -0 -1 -1 -1 -1 -1 -1 -2 -2 -3 -3 -2 -2 -2 -2 -2 -2 -2 -2 -2 -3 -3 -3 -3 -3 -3 -3 -3 -2 -2 -2 -2 -3 -3 -4 -3 -3 -3 -3 -4 -4 -5 -4 -4 -5 -5 -4 -4
1 0 -0 -1 -2 -2 -2 -2 -2 -3 -3 -3 -2 -2 -2 -2 -2 -1 -1 -1 -2 -2 -2 -2 -3 -3 -3 -3 -3 -2 -2 -2 -2 -3 -3 -3 -3 -3 -3 -3 -4 -4 -4 -4 -4 -4 -4 -4 -4
2 1 0 -1 -2 -2 -2 -3 -3 -3 -3 -3 -2 -2 -2 -2 -1 -1 -1 -1 -1 -1 -2 -2 -3 -3 -3 -3 -3 -3 -3 -3 -3 -3 -3 -3 -3 -3 -3 -4 -3 -3 -3 -3 -3 -4 -4 -4 -4
3 2 1 -0 -1 -2 -2 -3 -3 -3 -3 -2 -2 -2 -1 -1 -1 -1 -0 -0 -1 -1 -1 -2 -3 -3 -3 -3 -3 -3 -3 -3 -3 -3 -3 -3 -3 -3 -4 -4 -3 -3 -3 -3 -4 -4 -4 -4 -4
3 2 1 1 0 -1 -1 -2 -2 -3 -3 -2 -2 -1 -1 -1 -1 -1 -1 -1 -1 -2 -2 -2 -3 -3 -3 -3 -3 -3 -3 -3 -3 -3 -3 -3 -3 -4 -4 -4 -4 -3 -4 -4 -4 -4 -4 -4 -4
2 2 2 2 2 1 -0 -1 -1 -2 -3 -2 -2 -1 -1 -1 -1 -1 -1 -1 -1 -2 -2 -3 -3 -3 -3 -3 -3 -3 -3 -3 -3 -3 -3 -3 -4 -4 -5 -5 -4 -4 -4 -4 -4 -4 -4 -4 -3
2 2 2 3 3 2 1 1 0 -2 -3 -3 -3 -2 -1 -1 -1 -1 -1 -1 -2 -2 -3 -3 -3 -3 -3 -3 -3 -3 -3 -3 -3 -2 -3 -3 -4 -5 -5 -5 -5 -5 -5 -4 -4 -5 -4 -4 -4
2 3 3 4 4 3 3 2 2 0 -2 -3 -3 -3 -2 -2 -1 -1 -2 -2 -2 -2 -3 -3 -4 -4 -4 -4 -3 -3 -3 -3 -3 -3 -3 -4 -5 -5 -6 -5 -6 -5 -5 -5 -5 -5 -4 -4 -4
3 3 3 4 4 4 3 3 3 1 -1 -2 -3 -3 -3 -2 -2 -2 -2 -2 -2 -3 -3 -3 -4 -4 -4 -4 -3 -3 -2 -2 -3 -2 -3 -4 -5 -6 -6 -6 -6 -6 -5 -5 -5 -4 -4 -3 -3
4 3 4 4 4 4 3 3 2 1 0 -1 -2 -3 -3 -3 -3 -2 -2 -2 -3 -3 -3 -4 -4 -5 -5 -4 -4 -3 -2 -2 -2 -2 -3 -4 -5 -6 -6 -6 -6 -6 -6 -5 -5 -4 -3 -3 -3
4 4 4 4 4 4 3 2 2 2 1 -0 -1 -2 -3 -3 -3 -3 -3 -3 -3 -3 -3 -4 -4 -4 -4 -4 -4 -3 -3 -3 -2 -2 -2 -3 -4 -5 -6 -6 -6 -6 -6 -6 -5 -5 -4 -4 -4
4 4 4 4 4 3 2 2 1 2 1 1 0 -1 -2 -3 -3 -3 -3 -3 -3 -3 -4 -4 -4 -4 -4 -4 -4 -4 -3 -3 -2 -2 -2 -3 -3 -4 -5 -6 -6 -6 -6 -6 -6 -6 -5 -5 -5
4 4 4 4 3 2 1 1 1 1 1 1 1 -0 -1 -2 -3 -3 -3 -3 -3 -3 -4 -4 -4 -4 -4 -4 -4 -4 -4 -3 -3 -3 -3 -3 -3 -4 -4 -5 -6 -6 -6 -6 -6 -6 -6 -6 -6
4 4 3 2 2 1 1 1 1 1 1 1 0 -0 -1 -2 -3 -3 -3 -3 -3 -3 -4 -4 -4 -4 -5 -5 -4 -4 -4 -4 -3 -3 -3 -2 -2 -3 -4 -4 -5 -6 -6 -6 -6 -6 -6 -6 -6
3 2 1 0 0 0 1 1 1 1 1 0 -1 -1 -2 -3 -3 -3 -3 -3 -3 -3 -4 -4 -4 -5 -5 -5 -5 -5 -5 -4 -4 -3 -3 -2 -2 -2 -3 -4 -5 -5 -5 -6 -6 -6 -6 -6 -6
2 1 0 -1 -1 -0 0 0 1 1 1 0 -1 -2 -2 -3 -4 -4 -4 -4 -4 -4 -4 -4 -5 -5 -5 -5 -5 -5 -5 -5 -4 -3 -3 -3 -2 -2 -2 -3 -4 -4 -4 -5 -5 -5 -5 -5 -5
1 1 0 -0 -0 -0 -0 -0 0 1 1 0 -1 -2 -3 -4 -4 -4 -4 -4 -4 -4 -5 -5 -5 -6 -6 -6 -5 -5 -5 -5 -4 -4 -3 -3 -3 -2 -3 -3 -4 -4 -4 -4 -4 -4 -4 -4 -4
1 1 1 0 -0 -0 -0 -0 -0 0 0 -0 -1 -1 -2 -3 -4 -5 -5 -5 -5 -5 -5 -6 -6 -6 -6 -6 -6 -5 -5 -5 -4 -4 -4 -4 -3 -3 -3 -4 -4 -3 -3 -3 -4 -4 -4 -4 -4
1 1 1 0 -0 -0 -1 -0 -0 0 -0 -1 -1 -2 -2 -3 -4 -5 -5 -5 -6 -6 -6 -6 -6 -6 -7 -6 -6 -6 -5 -5 -5 -4 -4 -4 -4 -4 -3 -3 -4 -3 -3 -4 -4 -5 -4 -5 -5
1 1 0 0 -0 -0 -1 -0 0 0 -0 -1 -1 -2 -3 -4 -4 -4 -5 -6 -6 -6 -6 -6 -6 -6 -7 -6 -6 -6 -5 -5 -5 -4 -4 -4 -4 -4 -3 -3 -3 -4 -4 -4 -5 -5 -5 -5 -5